Regional Weather Roundup
Issued by NWS Jackson, KY

Home | Current Version | Previous Version | Text Only | Print | Product List | Glossary Off
Versions: 1 2 3 4 5 6 7 8 9 10 11 12 13 14 15 16 17 18 19 20 21 22 23 24 25 26 27 28 29 30 31 32 33 34 35 36 37 38 39 40 41 42 43 44 45 46 47 48 49 50

000
ASUS43 KJKL 012005
RWRJKL

EAST KENTUCKY HOURLY WEATHER ROUNDUP
NATIONAL WEATHER SERVICE JACKSON KY
300 PM EST SUN FEB 01 2015

NOTE: "FAIR" INDICATES FEW OR NO CLOUDS BELOW 12,000 FEET WITH
NO SIGNIFICANT WEATHER AND/OR OBSTRUCTIONS TO VISIBILITY.

* THESE REPORTS ARE NOT UNDER NWS QUALITY CONTROL AND MAY NOT
  REPORT WEATHER SUCH AS PRECIPITATION AND FOG.

KYZ079-080-083-085-087-088-110-112-115-119-120-012100
...EASTERN KENTUCKY...

CITY           SKY/WX    TMP DP  RH WIND       PRES   REMARKS
JACKSON        LGT RAIN  47  35  63 S13G33    29.79F
LONDON         LGT RAIN  47  37  68 S16G23    29.79F
SOMERSET*      CLOUDY    45  39  81 S9G17     29.79F
MONTICELLO*    CLOUDY    49  43  80 S17       29.79F
MIDDLESBORO*   LGT RAIN  44  34  70 S7        29.87F
HARLAN APT*    CLOUDY    45  34  65 E5        29.89F
BLACK MTN*       N/A     36  28  75 SW8         N/A  WCI  29
PIKEVILLE APT* LGT RAIN  48  34  57 S14G22    29.86F
BIG SANDY*     DRIZZLE   49  32  51 S14G23    29.84F
MOREHEAD APT*  LGT RAIN  41  34  75 SE8       29.78F
$$

KYZ035-036-041-042-044-050-067-078-099-012100
...CENTRAL KENTUCKY...

CITY           SKY/WX    TMP DP  RH WIND       PRES   REMARKS
MT STERLING*   DRIZZLE   43  39  87 S10G17    29.76F
FLEMING/MASON* RAIN      40  36  84 SE9       29.77F WCI  34
DANVILLE*      LGT RAIN  43  41  93 S14G20    29.75F
RICHMOND*      CLOUDY    45  39  81 S17G23    29.74F
LEXINGTON      LGT RAIN  44  40  85 S16       29.74F FOG
FRANKFORT      LGT RAIN  43  40  89 S10       29.71F FOG
$$

KYZ091>093-OHZ055-061-077-WVZ005-015-034-035-042-012100
...SOUTHERN OHIO/WEST VIRGINIA...

CITY           SKY/WX    TMP DP  RH WIND       PRES   REMARKS
COVINGTON      LGT RAIN  44  39  82 S15G24    29.69F
COLUMBUS       CLOUDY    36  30  79 SE10      29.79F WCI  28
DAYTON         LGT RAIN  36  33  89 SE10      29.70F FOG     WCI  28
WILMINGTON     LGT RAIN  40  35  83 S17G26    29.72F WCI  31
HUNTINGTON     RAIN      44  32  62 S9G16     29.82F
CHARLESTON     CLOUDY    48  23  37 S8        29.85F
PINEVILLE*     CLOUDY    44  34  67 MISG      29.95F
BECKLEY        CLOUDY    43  17  35 SE8G18    29.89F
BLUEFIELD      CLOUDY    49  11  21 VRB6      29.94F
$$

VAZ002-007-008-TNZ017-027-036-066-071-012100
...SOUTHWEST VIRGINIA/EAST TENNESSEE...

CITY           SKY/WX    TMP DP  RH WIND       PRES   REMARKS
WISE*          CLOUDY    45  23  42 S17G25    29.89F
JONESVILLE*    LGT RAIN  45  32  61 CALM      29.93F
ABINGDON*      CLOUDY    52  19  27 SW6       29.93F
BRISTOL        CLOUDY    52  24  33 CALM      29.92F
KNOXVILLE      CLOUDY    44  37  76 NE6       29.89F
OAK RIDGE      LGT RAIN  43  39  86 VRB5      29.91F FOG
CROSSVILLE     CLOUDY    45  41  86 S12G24    29.82F
NASHVILLE      LGT RAIN  52  50  93 S16       29.75F FOG
$$

...KEY TO REMARKS...
VSB - VISIBILITY IN MILES
WCI - WIND CHILL INDEX
HX  - HEAT INDEX

$$


USA.gov is the U.S. government's official web portal to all federal, state and local government web resources and services.